Cloud_Cover
80 80 80 76 68 64 56 64 48 36 36 44 48 48 48 20 20 32 32 20 8 8 8 8 8 8 0 0 0 12 56 68 80 92 92 88 80 80 80 80 76 68 88 92 92 92 92 88 76 64 64 44 36 36 36 48 48 56 56 56 64 76 88 92 80 68 88 92 92 92 92 92 92 92 92 92 92 92 92 92 92 92 92 92 92 92
80 80 80 76 64 64 68 64 48 32 8 32 36 36 32 24 24 24 20 36 36 32 24 32 32 24 8 8 0 0 0 8 48 88 80 88 92 88 76 68 68 80 92 92 92 92 92 80 68 64 80 48 32 32 56 64 64 68 68 68 68 76 92 92 76 68 92 92 92 92 92 92 92 92 92 92 92 92 92 92 92 92 92 92 92 88
80 80 76 64 56 64 64 56 56 56 36 32 32 36 32 44 36 36 48 32 36 48 44 44 36 24 36 20 12 12 8 24 56 80 68 88 92 88 76 88 92 92 92 92 92 92 92 88 80 76 88 68 64 56 68 76 76 76 76 76 80 80 88 92 76 64 76 80 88 92 92 92 92 92 92 92 92 92 92 92 92 92 92 88 76 68
80 76 68 68 64 56 56 48 48 56 56 44 44 48 48 44 44 44 56 36 32 36 32 36 44 48 68 36 32 24 20 36 56 76 92 92 92 92 92 92 92 88 80 76 80 92 88 88 92 92 92 92 88 80 68 64 64 64 76 80 88 80 80 80 68 56 56 64 76 80 88 92 92 92 92 92 92 92 92 92 92 92 88 76 68 68
76 76 68 64 56 56 64 64 64 64 64 56 56 48 48 48 48 56 56 36 32 32 32 36 36 48 68 64 48 36 32 36 48 68 92 92 92 92 92 92 88 76 48 44 68 88 80 92 92 92 92 92 88 76 64 44 36 44 44 68 80 88 92 76 76 80 76 64 76 88 80 76 80 92 92 92 92 92 92 92 92 92 88 80 80 76
64 76 80 68 64 56 64 64 64 64 56 56 48 44 56 48 48 48 48 48 48 48 32 44 56 64 64 44 32 20 20 36 44 56 92 92 92 92 92 92 80 68 56 68 80 92 88 92 92 92 92 92 88 80 68 48 36 36 44 56 76 92 92 92 92 92 92 80 80 88 88 76 68 76 80 80 92 92 92 92 92 92 92 92 92 92
76 88 92 88 80 76 64 68 64 56 48 36 24 24 36 56 56 56 64 64 64 56 44 48 48 48 36 12 8 12 32 44 56 64 88 92 92 92 92 92 88 80 64 80 88 92 92 88 88 92 92 92 92 88 80 68 64 56 64 64 76 88 92 92 92 92 92 88 88 92 92 88 76 64 56 56 68 80 88 92 92 92 92 92 92 92
76 80 92 80 76 76 76 56 48 48 32 20 20 24 24 44 56 68 80 76 68 64 64 36 48 64 24 20 20 20 32 56 68 68 68 88 92 92 92 92 92 88 68 88 92 88 76 76 80 88 92 88 88 80 76 80 80 80 88 80 80 88 92 92 92 92 92 92 92 92 92 92 80 68 56 44 48 64 76 92 92 92 92 92 88 80
68 76 88 80 68 56 48 32 44 64 48 44 44 48 48 36 48 68 80 88 80 68 68 24 56 80 32 24 20 32 48 76 88 88 76 88 92 92 92 92 92 92 88 88 80 76 64 76 80 88 92 88 80 80 76 80 76 80 88 92 92 92 92 92 92 92 92 92 92 92 92 92 92 80 68 64 64 64 76 80 80 80 76 80 68 56
76 80 88 88 68 48 36 44 56 76 80 76 76 68 76 64 68 68 48 76 80 76 44 48 56 64 68 56 44 44 80 92 92 92 92 92 92 92 92 92 92 92 92 92 88 80 76 88 88 92 92 88 80 80 80 80 76 76 80 92 92 92 92 92 92 92 92 92 92 92 92 92 92 88 76 68 76 88 88 80 76 64 48 56 44 32
80 88 88 92 88 76 56 68 80 80 88 80 64 56 76 80 80 76 64 56 68 80 68 76 76 80 92 76 68 76 88 92 92 92 92 92 92 92 92 92 92 92 92 92 92 92 92 92 92 92 92 80 80 76 76 76 64 64 76 88 92 92 92 92 92 92 92 92 92 92 92 92 92 88 76 76 80 92 92 92 76 56 36 36 32 20
88 92 92 92 92 92 88 80 80 80 68 56 48 48 48 68 80 80 80 76 68 76 88 88 92 92 80 76 76 80 92 92 92 92 92 92 92 92 92 92 92 92 92 92 92 92 92 92 92 92 92 88 80 76 76 68 64 64 68 88 92 92 92 92 92 92 92 92 80 68 68 88 80 68 76 68 80 92 92 92 88 76 44 32 24 24
92 92 92 92 92 88 88 76 68 68 76 76 68 68 76 80 88 80 76 76 76 76 80 88 68 56 88 88 80 76 68 88 92 92 92 92 92 92 92 92 92 92 92 92 92 92 92 92 92 92 92 88 80 76 76 68 64 64 68 80 88 92 92 92 92 92 92 76 56 36 48 56 48 36 48 48 56 68 88 68 64 56 24 32 44 56
92 92 88 88 88 88 80 76 76 68 68 88 88 88 92 88 88 88 88 76 76 76 76 64 56 56 92 88 88 88 80 88 92 92 92 92 92 92 92 92 92 92 92 92 92 92 92 92 92 92 92 80 80 80 76 76 68 64 68 68 68 68 76 88 92 88 64 48 36 36 48 44 44 36 36 44 44 48 56 36 36 36 36 32 32 36
92 92 92 92 88 80 76 76 80 80 88 92 92 92 92 92 88 88 92 80 76 76 88 76 76 88 92 80 88 92 80 80 88 92 92 92 92 92 92 92 92 92 92 92 92 92 92 92 92 92 88 80 88 88 88 80 76 68 64 68 76 76 88 80 76 76 76 64 64 64 56 48 48 48 36 44 48 48 44 44 36 32 24 24 24 20
92 92 92 92 88 88 76 88 88 88 88 92 92 92 92 92 88 88 88 80 80 88 92 92 92 92 92 92 92 92 80 88 92 92 92 92 92 92 92 92 92 92 92 92 92 92 92 92 92 92 92 88 80 88 88 76 68 64 56 64 76 76 76 80 88 92 92 88 88 80 80 68 56 48 44 48 64 64 56 36 32 24 20 20 20 12
92 92 92 92 92 88 88 88 92 92 92 92 92 92 92 92 88 80 80 80 88 88 92 92 80 76 92 92 80 76 92 92 92 92 92 92 92 92 92 92 92 92 92 92 92 92 92 92 92 92 92 88 88 80 80 68 64 64 56 64 64 56 48 68 80 88 80 88 80 80 80 68 64 64 56 56 56 48 44 36 32 24 20 24 24 20
92 92 88 92 92 92 92 92 92 92 92 92 92 88 80 88 92 92 88 92 92 92 92 92 88 88 92 92 80 68 92 92 88 88 92 92 92 92 92 92 92 92 92 92 92 92 92 92 92 92 92 88 88 88 80 68 68 68 68 64 56 56 56 64 68 68 68 76 76 76 64 64 64 64 64 64 56 48 44 36 32 24 20 20 20 12
92 92 92 92 88 88 92 92 92 92 92 88 80 80 80 92 92 88 88 92 92 92 88 92 92 92 88 92 80 76 92 92 92 88 92 92 92 92 92 92 92 92 92 92 92 92 92 92 92 92 92 88 88 80 76 68 68 68 64 64 56 56 64 64 68 68 64 64 64 68 68 68 68 68 68 64 56 56 48 44 36 32 24 24 24 20
92 92 92 88 88 88 92 92 92 88 80 92 88 88 88 92 92 88 88 92 92 92 92 92 92 92 92 92 88 80 92 92 92 92 92 88 88 92 92 92 92 92 92 92 92 92 92 92 92 92 92 92 92 92 88 80 76 76 68 76 68 64 68 64 64 64 64 64 64 64 68 68 64 64 64 64 48 44 44 36 32 32 32 24 20 20
92 92 80 80 88 88 88 88 92 92 92 80 88 92 92 92 92 92 92 92 92 92 92 92 92 92 92 92 92 92 88 92 92 88 92 92 92 88 92 92 92 92 92 92 92 92 92 92 92 92 92 92 92 92 92 76 68 76 80 88 92 92 92 88 76 68 64 64 64 64 64 64 56 48 48 48 36 32 32 32 24 24 24 24 20 20
88 88 80 88 88 92 88 92 92 88 80 88 88 92 92 92 92 92 92 92 92 92 92 92 92 88 80 88 92 88 80 92 92 92 92 88 88 88 68 80 88 92 92 92 92 92 92 92 92 92 92 92 92 88 88 88 68 64 76 88 88 92 92 92 88 80 76 68 64 56 56 48 44 36 36 32 24 24 24 20 20 20 20 20 20 20
80 80 92 80 88 92 92 88 88 88 92 92 92 92 92 92 92 92 92 92 92 92 92 92 92 92 92 92 92 92 88 92 92 88 80 92 92 88 68 68 80 88 88 88 92 92 92 92 92 92 92 92 92 88 76 76 80 80 68 76 76 80 92 88 88 88 80 76 68 64 56 48 36 24 32 24 24 20 20 20 12 12 12 20 20 20
76 76 88 88 92 88 88 88 88 88 92 88 88 92 88 92 92 92 92 92 92 92 92 92 92 88 76 88 92 88 80 88 92 92 92 88 80 76 76 64 76 80 68 80 88 92 92 92 92 92 92 92 92 92 92 92 92 88 88 80 80 88 92 92 92 92 92 80 76 68 56 48 36 32 24 24 24 20 20 20 12 8 8 12 12 12
76 76 80 88 88 88 76 76 76 80 88 80 80 80 80 88 92 92 92 92 92 92 88 76 80 80 68 88 88 76 68 80 80 88 88 76 76 76 68 76 88 80 68 64 76 88 92 80 88 92 92 92 92 92 92 92 92 92 88 80 76 80 88 88 92 92 92 80 76 76 68 64 56 48 36 32 24 20 20 12 8 8 8 12 12 12
68 68 68 68 76 76 76 76 76 80 80 88 92 92 92 92 92 92 92 92 88 80 76 76 76 80 76 88 80 68 68 80 88 88 80 88 88 76 64 80 88 88 80 68 68 76 76 68 68 80 92 92 92 92 92 92 92 92 92 92 88 80 68 80 88 92 92 92 92 88 76 88 76 64 48 44 24 20 12 12 8 8 8 12 20 20
64 64 64 64 68 76 80 80 88 88 88 80 80 88 92 92 88 88 88 88 76 68 76 76 68 64 76 80 80 76 56 76 88 92 92 88 88 80 56 68 80 80 76 64 64 64 64 68 76 80 80 80 88 92 88 76 80 88 92 92 92 88 68 88 92 88 92 92 92 92 92 92 88 76 56 44 32 20 12 12 8 8 12 20 20 12
56 56 64 68 76 80 80 76 76 76 68 76 68 68 80 80 76 76 80 68 68 76 80 76 68 68 80 76 76 68 56 64 76 92 92 88 88 88 80 64 64 76 64 48 44 44 48 44 56 76 68 68 80 88 76 76 76 68 80 88 88 88 80 88 88 92 92 92 92 92 92 92 92 80 64 48 36 24 20 12 12 12 12 20 20 12
64 64 68 76 80 80 76 76 76 76 76 76 76 68 56 68 68 68 76 68 68 76 80 68 64 64 76 76 68 64 64 56 64 76 88 80 80 76 56 56 64 56 48 36 32 24 24 8 20 36 64 56 56 68 68 68 68 76 76 88 88 88 92 88 88 92 92 92 92 92 92 88 88 88 76 64 48 36 36 24 24 24 20 24 20 20
68 68 76 76 80 76 80 80 80 80 76 68 64 56 48 64 68 68 64 64 64 68 88 80 76 76 80 88 80 80 80 56 44 48 76 80 76 64 32 32 32 36 32 24 20 20 8 0 0 8 24 24 24 32 36 24 32 44 68 56 68 92 92 92 92 92 92 92 92 92 92 80 88 88 80 80 68 64 64 44 56 64 44 32 32 24
76 76 68 68 64 56 56 56 64 68 68 64 56 48 48 48 56 64 64 64 56 56 76 88 88 88 88 92 92 92 88 56 32 32 48 68 76 64 32 20 20 20 20 12 12 12 12 8 0 0 8 12 20 20 12 12 8 12 20 12 24 44 48 48 64 80 92 88 88 88 92 92 92 88 80 88 92 92 88 68 76 80 64 44 36 32
68 68 68 64 48 36 32 24 32 44 48 56 56 56 48 48 48 56 48 48 48 48 56 68 76 80 80 88 88 80 76 48 36 36 48 68 76 64 20 24 24 24 20 36 24 8 12 12 8 0 0 12 12 20 12 12 8 8 8 8 8 0 12 0 12 36 64 48 68 88 88 88 92 88 80 88 92 92 92 80 88 88 68 56 44 36
56 56 56 44 44 48 44 36 32 32 44 48 56 56 56 56 48 48 44 44 44 44 44 48 48 56 64 76 80 76 44 64 48 36 64 48 44 44 44 32 32 32 24 32 32 20 8 8 8 8 0 12 12 12 12 12 12 12 8 8 8 8 8 8 0 0 20 12 24 36 44 36 36 36 36 48 76 92 88 92 92 88 80 68 56 48
44 44 36 32 44 64 64 56 48 44 48 48 56 56 56 56 48 44 44 36 32 24 24 24 24 32 36 48 68 68 24 32 20 24 76 24 12 20 24 20 20 20 20 20 12 20 32 12 12 12 0 0 0 0 8 8 8 12 20 24 12 0 0 0 0 0 0 0 0 0 8 0 0 0 0 8 24 36 36 80 92 92 92 80 68 64
56 44 36 32 36 44 48 48 56 48 44 44 48 48 56 44 36 32 36 32 24 12 20 24 24 24 24 32 36 36 12 8 0 20 64 20 8 8 8 8 8 8 12 12 8 8 20 8 20 24 0 0 0 0 0 0 0 8 20 32 20 8 0 0 0 0 0 0 0 0 0 0 0 0 0 0 0 0 0 24 48 76 92 68 76 80
76 64 36 36 36 32 32 32 36 36 32 32 32 32 36 24 24 24 24 32 36 36 44 32 24 24 20 20 20 20 12 8 24 36 24 12 8 12 12 8 8 8 12 12 8 0 0 0 20 24 12 8 8 0 8 0 0 8 12 12 12 12 20 24 24 20 0 0 0 0 0 0 0 0 0 0 0 0 0 8 32 64 92 80 88 92
76 64 32 32 24 24 24 24 24 24 24 24 24 20 20 20 20 24 20 32 32 36 48 44 44 36 36 20 12 12 8 8 12 24 44 12 8 8 12 12 8 0 0 0 0 0 8 0 0 8 0 0 0 0 8 8 12 20 20 12 12 20 20 12 20 24 0 0 0 0 0 0 0 0 0 0 0 0 0 0 32 56 68 88 80 76
64 44 24 32 36 44 44 32 24 20 36 32 24 20 12 20 20 24 24 24 24 24 20 20 32 44 44 36 20 8 8 8 8 20 44 12 8 8 12 12 20 24 0 0 0 0 0 0 0 0 0 0 0 8 12 12 24 32 24 24 20 20 12 0 20 24 0 0 0 0 0 0 12 24 0 0 0 0 0 0 8 12 24 48 56 68
24 24 32 24 44 64 76 48 36 32 48 36 32 20 20 36 44 44 36 32 32 36 24 20 12 12 12 32 36 36 36 20 24 36 36 12 8 8 8 8 20 24 0 0 0 0 0 0 0 0 0 0 0 0 0 24 36 36 24 24 24 24 12 8 12 32 32 8 0 0 0 0 20 32 24 8 0 0 0 0 0 8 32 36 48 68
64 56 44 48 48 48 56 56 64 68 56 48 44 44 48 48 44 44 56 48 44 44 36 32 24 12 8 32 36 44 36 36 36 36 36 32 20 8 8 0 0 8 24 24 12 0 0 0 0 0 0 0 0 0 0 0 0 12 36 24 20 20 8 8 8 12 24 12 8 0 0 0 20 32 24 12 0 0 0 0 0 0 0 32 44 56
92 88 76 48 36 36 56 80 80 68 48 44 36 36 44 24 20 20 32 32 20 8 8 8 8 8 8 8 8 12 36 36 36 44 36 32 20 8 0 0 0 8 32 20 8 0 0 0 0 8 8 0 0 0 0 0 0 8 0 8 12 12 0 8 20 32 36 32 24 12 0 0 0 8 24 24 20 12 0 0 0 0 8 32 44 64
92 88 68 48 36 48 92 80 76 64 44 36 36 32 24 12 12 12 8 8 8 8 0 8 8 8 12 8 8 0 0 24 36 44 32 20 24 20 0 0 0 0 0 8 20 20 0 0 0 8 8 8 0 0 0 0 0 0 0 0 8 12 8 8 0 8 32 32 20 0 8 0 0 0 0 8 12 8 8 8 0 8 20 20 32 48
92 88 64 56 76 92 92 80 68 56 44 36 32 24 20 12 12 12 8 8 24 36 24 24 20 8 8 8 12 8 8 0 0 12 44 36 36 44 44 20 8 0 0 0 0 0 20 32 24 12 8 8 8 8 0 0 0 0 0 0 0 8 12 0 0 0 12 24 12 0 0 0 0 8 8 36 48 36 12 36 36 32 36 36 44 48
92 88 64 56 76 88 80 76 68 64 48 44 36 36 36 48 48 36 12 12 24 36 36 32 20 8 8 8 8 8 0 0 0 8 36 48 44 44 44 32 12 0 0 0 0 8 8 32 32 20 8 8 12 12 8 0 0 0 0 0 0 0 0 8 0 0 0 0 0 0 0 8 8 12 20 24 24 32 24 32 36 36 44 44 48 56
80 68 56 64 64 64 56 68 68 64 56 48 48 48 48 64 64 56 44 32 32 36 36 36 24 8 12 8 0 0 0 0 0 0 0 36 56 48 32 44 36 20 0 0 8 8 8 8 8 8 8 24 32 24 12 12 12 8 8 0 0 0 0 0 0 0 0 0 0 0 0 8 12 20 24 32 36 36 36 44 48 48 44 48 48 48
68 64 68 64 64 64 68 76 76 68 68 64 64 56 64 76 80 76 56 48 44 36 36 68 56 44 68 64 44 20 12 8 0 0 0 0 24 56 56 64 56 56 56 24 20 20 8 8 8 8 8 24 20 12 12 12 12 12 8 0 0 0 0 0 0 0 0 0 0 0 0 0 0 12 24 36 44 44 48 56 56 56 56 64 56 56
76 76 68 68 68 76 80 80 80 80 76 68 64 56 56 68 76 76 76 64 36 24 64 64 68 76 76 68 44 20 24 32 24 8 0 0 20 36 48 56 64 64 64 64 56 48 24 12 8 8 8 8 12 12 12 12 12 12 8 8 8 0 0 0 0 0 0 8 0 0 0 0 8 12 32 32 36 44 48 56 64 64 68 68 68 68
80 76 68 76 80 80 80 88 88 88 80 76 68 56 56 64 64 64 56 44 32 32 80 76 76 80 80 44 56 76 76 76 36 0 0 0 20 36 48 56 56 64 64 64 64 56 44 32 24 24 20 20 24 24 20 12 12 12 8 8 8 0 0 0 0 0 0 8 0 0 0 0 8 20 24 20 20 24 36 36 44 56 64 68 76 76
92 88 80 88 88 88 80 92 92 88 76 64 48 48 64 68 64 48 32 36 44 48 80 76 76 80 80 76 76 76 76 76 48 24 32 32 32 36 36 48 56 48 48 56 48 44 44 48 48 44 24 24 24 24 24 20 12 8 8 8 8 0 0 0 0 0 0 0 0 0 8 8 20 24 20 12 12 12 24 24 32 44 56 56 64 68
92 92 88 92 92 88 76 88 88 76 68 64 64 68 88 80 68 48 24 44 48 56 76 80 80 80 80 68 68 68 68 80 80 76 76 68 48 44 56 64 48 36 32 36 36 24 24 32 24 20 24 20 20 20 24 20 12 8 8 12 8 8 8 8 8 0 0 0 8 12 20 24 32 32 24 12 12 12 12 8 12 24 56 48 56 64
92 92 92 88 88 88 80 80 76 68 68 76 88 88 88 88 80 68 48 68 68 64 64 76 80 80 80 68 76 76 76 80 80 80 76 68 56 48 56 64 48 44 48 44 44 44 44 24 20 20 20 12 12 12 20 24 20 20 12 12 12 12 8 8 8 8 8 8 8 20 24 36 44 48 44 36 36 32 20 20 12 20 44 48 64 68